Weather History for Salina, KS

Change the Weather History Date:

Sunday, July 8, 2012

  Actual Average Record
Temperature  
Mean Temperature 81 °F 81 °F  
Max Temperature 89 °F 93 °F 110 °F (1913)
Min Temperature 72 °F 69 °F 51 °F (1952)
Degree Days  
Heating Degree Days 0 0  
Month to date heating degree days 0 0  
Since 1 June heating degree days 10 7  
Since 1 July heating degree days 0 0  
Cooling Degree Days 16 16  
Month to date cooling degree days 191 124  
Year to date cooling degree days 991 577  
Since 1 June cooling degree days 669 449  
Growing Degree Days 30 (Base 50)    
Moisture  
Dew Point 68 °F    
Average Humidity 69    
Maximum Humidity 87    
Minimum Humidity 50    
Precipitation  
Precipitation T in 0.14 in 1.35 in (1971)
Month to date precipitation 0.31 1.18  
Year to date precipitation 9.90 17.28  
Sea Level Pressure  
Sea Level Pressure 30.04 in    
Wind  
Wind Speed 9 mph (North)    
Max Wind Speed 21 mph    
Max Gust Speed 25 mph    
Visibility 10 miles    
Events Rain , Thunderstorm    
T = Trace of Precipitation, MM = Missing Value Source: NWS Daily Summary

Daily Weather History Graph

Daily Weather History Graph

Search for Another Location

Airport:

Trip Planner

Search our weather history database for the weather conditions in past years. The results will help you decide how hot, cold, wet, or windy it might be!

Date:

Astronomy

Jul. 08, 2012 Rise Set
Actual Time 6:13 AM CDT 8:57 PM CDT
Civil Twilight 5:41 AM CDT 9:29 PM CDT
Nautical Twilight 5:02 AM CDT 10:08 PM CDT
Astronomical Twilight 4:17 AM CDT 10:53 PM CDT
Moon 11:50 PM CDT (7/8) 11:38 AM CDT (7/8)
Length of Visible Light 15h 47m
Length of Day
14h 44m
Waning Gibbous, 73% of the Moon is Illuminated
Jul 8
Waning Gibbous
Jul 10
Last Quarter
Jul 18
New
Jul 26
First Quarter
Aug 1
Full

Hourly Weather History & Observations

Time (CDT) Temp. Heat Index Dew Point Humidity Pressure Visibility Wind Dir Wind Speed Gust Speed Precip Events Conditions
12:53 AM 77.0 °F - 66.9 °F 71% 30.04 in 10.0 mi Calm Calm - N/A   Clear
1:01 AM 77.0 °F - 66.2 °F 69% 30.09 in 10.0 mi SSW 3.5 mph - N/A Thunderstorm Clear
1:53 AM 75.9 °F - 68.0 °F 76% 29.99 in 10.0 mi SW 12.7 mph - 0.00 in Rain Light Rain
2:53 AM 78.1 °F - 66.9 °F 68% 29.96 in 10.0 mi SW 12.7 mph - 0.00 in   Clear
3:53 AM 77.0 °F - 66.9 °F 71% 30.01 in 10.0 mi WNW 3.5 mph - N/A   Clear
4:53 AM 73.9 °F - 68.0 °F 82% 30.03 in 10.0 mi NW 5.8 mph - N/A   Clear
5:53 AM 73.0 °F - 66.9 °F 81% 30.01 in 10.0 mi NNW 5.8 mph - N/A   Clear
6:53 AM 73.9 °F - 69.1 °F 85% 30.00 in 10.0 mi North 8.1 mph - N/A   Clear
7:53 AM 78.1 °F - 71.1 °F 79% 30.05 in 10.0 mi North 8.1 mph - N/A   Mostly Cloudy
8:53 AM 80.1 °F 83.8 °F 72.0 °F 76% 30.06 in 10.0 mi NNW 11.5 mph - N/A   Mostly Cloudy
9:53 AM 81.0 °F 84.9 °F 71.1 °F 72% 30.10 in 10.0 mi NNW 13.8 mph - N/A   Mostly Cloudy
10:29 AM 80.6 °F 83.9 °F 69.8 °F 70% 30.12 in 10.0 mi NNW 16.1 mph - N/A   Mostly Cloudy
10:43 AM 82.4 °F 87.2 °F 71.6 °F 70% 30.11 in 10.0 mi North 15.0 mph - N/A   Scattered Clouds
10:53 AM 82.9 °F 87.5 °F 71.1 °F 67% 30.06 in 10.0 mi North 11.5 mph - N/A   Partly Cloudy
11:53 AM 87.1 °F 92.8 °F 71.1 °F 59% 30.07 in 10.0 mi NNW 15.0 mph - N/A   Partly Cloudy
12:53 PM 84.9 °F 88.8 °F 69.1 °F 59% 30.06 in 10.0 mi NE 11.5 mph 21.9 mph N/A   Clear
1:53 PM 84.9 °F 88.8 °F 69.1 °F 59% 30.05 in 10.0 mi North 15.0 mph 20.7 mph N/A   Clear
2:53 PM 84.9 °F 88.2 °F 68.0 °F 57% 30.03 in 10.0 mi NNE 10.4 mph - N/A   Clear
3:53 PM 87.1 °F 90.6 °F 68.0 °F 53% 30.03 in 10.0 mi ENE 11.5 mph - N/A   Clear
4:53 PM 88.0 °F 90.7 °F 66.9 °F 49% 30.01 in 10.0 mi Variable 5.8 mph - N/A   Clear
5:53 PM 86.0 °F 88.2 °F 66.0 °F 51% 30.01 in 10.0 mi NNE 11.5 mph - N/A   Clear
6:53 PM 86.0 °F 88.2 °F 66.0 °F 51% 29.98 in 10.0 mi NE 11.5 mph - N/A   Clear
7:53 PM 84.9 °F 86.6 °F 64.9 °F 51% 29.99 in 10.0 mi ENE 6.9 mph - N/A   Clear
8:53 PM 82.9 °F 85.4 °F 66.9 °F 58% 29.99 in 10.0 mi East 5.8 mph - N/A   Clear
9:53 PM 81.0 °F 83.3 °F 66.9 °F 62% 30.01 in 10.0 mi NE 5.8 mph - N/A   Clear
10:53 PM 80.1 °F 82.7 °F 68.0 °F 67% 30.04 in 10.0 mi ENE 8.1 mph - N/A   Clear
11:53 PM 79.0 °F - 66.9 °F 66% 30.05 in 10.0 mi NE 8.1 mph - N/A   Mostly Cloudy